Location: Newark
(7.0858°N, 171.3717°E)
Time: 07:39:39
(UTC+00:00)

Courier 1B - Pass Details

Date: 04 December 2020
Orbit: 962 x 1209 km, 28.3° (Epoch: 20 January)

Event Time Altitude Azimuth Distance (km) Brightness Sun altitude
Rises 14:59:29 0° 302° (WNW) 3,862 - -49.8°
Reaches altitude 10° 15:02:10 10° 304° (NW) 2,942 - -49.2°
Maximum altitude 15:09:27 75° 29° (NNE) 1,184 - -47.6°
Exits shadow 15:14:01 27° 109° (ESE) 2,082 9.5 -46.6°
Drops below altitude 10° 15:17:11 10° 114° (ESE) 3,105 10.7 -45.9°
Sets 15:20:05 0° 115° (ESE) 4,087 11.5 -45.2°
